QPF
0.00 0.00 0.00 0.00 0.00 0.00 0.00 0.00 0.00 0.00 0.00 0.00 0.00 0.00 0.00 0.00 0.00 0.00 0.00 0.00 0.00 0.00 0.00 0.00 0.00 0.00 0.00 0.00 0.00 0.00 0.00 0.00 0.00 0.00 0.00 0.00 0.00 0.00 0.00 0.00 0.00 0.02 0.04 0.06 0.09 0.10 0.09 0.06 0.05 0.07 0.09 0.08 0.08 0.06 0.03 0.03 0.02 0.02 0.02 0.03 0.04 0.04 0.03 0.03 0.02 0.01 0.01 0.00 0.00
0.00 0.00 0.00 0.00 0.00 0.00 0.00 0.00 0.00 0.00 0.00 0.00 0.00 0.00 0.00 0.00 0.00 0.00 0.00 0.00 0.00 0.00 0.00 0.00 0.00 0.00 0.00 0.00 0.00 0.00 0.00 0.00 0.00 0.00 0.00 0.00 0.00 0.00 0.00 0.00 0.00 0.01 0.02 0.05 0.08 0.11 0.12 0.13 0.16 0.18 0.18 0.18 0.15 0.13 0.10 0.06 0.05 0.04 0.04 0.03 0.05 0.05 0.05 0.03 0.03 0.02 0.01 0.01 0.00
0.00 0.00 0.00 0.00 0.00 0.00 0.00 0.00 0.00 0.00 0.00 0.00 0.00 0.00 0.00 0.00 0.00 0.00 0.00 0.00 0.00 0.00 0.00 0.00 0.00 0.00 0.00 0.00 0.00 0.00 0.00 0.00 0.00 0.00 0.00 0.00 0.00 0.00 0.00 0.00 0.00 0.00 0.01 0.02 0.05 0.09 0.13 0.15 0.22 0.25 0.26 0.29 0.26 0.23 0.19 0.12 0.10 0.08 0.06 0.06 0.07 0.07 0.07 0.06 0.05 0.03 0.02 0.02 0.00
0.00 0.00 0.00 0.00 0.00 0.00 0.00 0.00 0.00 0.00 0.00 0.00 0.00 0.00 0.00 0.00 0.00 0.00 0.00 0.00 0.00 0.00 0.00 0.00 0.00 0.00 0.00 0.00 0.00 0.00 0.00 0.00 0.00 0.00 0.00 0.00 0.00 0.00 0.00 0.00 0.00 0.00 0.00 0.01 0.03 0.06 0.09 0.12 0.19 0.27 0.35 0.37 0.37 0.35 0.31 0.25 0.17 0.11 0.09 0.10 0.09 0.08 0.08 0.08 0.08 0.06 0.05 0.02 0.03
0.00 0.00 0.00 0.00 0.00 0.00 0.00 0.00 0.00 0.00 0.00 0.00 0.00 0.00 0.00 0.00 0.00 0.00 0.00 0.00 0.00 0.00 0.00 0.00 0.00 0.00 0.00 0.00 0.00 0.00 0.01 0.00 0.00 0.00 0.01 0.00 0.00 0.00 0.00 0.00 0.00 0.00 0.00 0.00 0.01 0.03 0.06 0.09 0.14 0.25 0.35 0.39 0.42 0.42 0.40 0.37 0.24 0.17 0.14 0.15 0.12 0.10 0.09 0.09 0.09 0.08 0.07 0.05 0.05
0.00 0.00 0.00 0.00 0.00 0.00 0.00 0.00 0.00 0.00 0.00 0.00 0.00 0.00 0.00 0.00 0.00 0.00 0.00 0.00 0.00 0.00 0.00 0.01 0.01 0.01 0.01 0.01 0.01 0.01 0.01 0.01 0.00 0.00 0.00 0.01 0.00 0.00 0.00 0.00 0.00 0.00 0.00 0.00 0.00 0.00 0.01 0.04 0.09 0.15 0.25 0.40 0.42 0.40 0.38 0.36 0.30 0.24 0.21 0.23 0.18 0.15 0.12 0.10 0.08 0.08 0.07 0.06 0.05
0.00 0.00 0.00 0.00 0.00 0.00 0.00 0.00 0.00 0.00 0.00 0.00 0.00 0.00 0.00 0.00 0.00 0.00 0.00 0.01 0.01 0.01 0.01 0.01 0.01 0.01 0.01 0.01 0.01 0.01 0.01 0.01 0.01 0.00 0.00 0.01 0.00 0.00 0.00 0.00 0.00 0.00 0.00 0.00 0.00 0.00 0.01 0.02 0.06 0.11 0.20 0.36 0.38 0.37 0.34 0.30 0.27 0.26 0.25 0.21 0.20 0.17 0.14 0.11 0.09 0.07 0.06 0.05 0.04
0.00 0.00 0.00 0.00 0.00 0.00 0.00 0.00 0.00 0.00 0.00 0.00 0.00 0.00 0.00 0.00 0.00 0.00 0.00 0.01 0.01 0.01 0.01 0.01 0.01 0.01 0.01 0.01 0.01 0.01 0.01 0.01 0.01 0.01 0.01 0.00 0.00 0.00 0.00 0.00 0.00 0.00 0.00 0.00 0.00 0.00 0.01 0.01 0.03 0.06 0.11 0.18 0.29 0.33 0.31 0.28 0.27 0.27 0.26 0.22 0.17 0.13 0.10 0.07 0.06 0.05 0.04 0.03 0.02
0.00 0.00 0.00 0.00 0.00 0.00 0.00 0.00 0.00 0.00 0.00 0.00 0.00 0.00 0.00 0.00 0.00 0.01 0.01 0.01 0.01 0.01 0.01 0.01 0.01 0.01 0.01 0.01 0.01 0.01 0.01 0.01 0.01 0.01 0.01 0.01 0.01 0.00 0.00 0.00 0.00 0.00 0.00 0.00 0.00 0.00 0.01 0.02 0.03 0.03 0.05 0.09 0.19 0.23 0.24 0.25 0.26 0.26 0.25 0.24 0.16 0.10 0.05 0.03 0.02 0.02 0.01 0.00 0.01
0.00 0.00 0.00 0.00 0.00 0.00 0.00 0.00 0.00 0.00 0.00 0.00 0.00 0.00 0.00 0.00 0.01 0.01 0.01 0.01 0.01 0.01 0.01 0.01 0.01 0.01 0.01 0.01 0.01 0.01 0.01 0.01 0.01 0.01 0.01 0.01 0.01 0.00 0.00 0.00 0.00 0.00 0.00 0.00 0.00 0.00 0.01 0.01 0.02 0.03 0.04 0.04 0.08 0.13 0.18 0.21 0.20 0.22 0.24 0.23 0.17 0.10 0.03 0.01 0.01 0.00 0.00 0.00 0.00
0.00 0.00 0.00 0.00 0.00 0.00 0.00 0.00 0.00 0.00 0.00 0.00 0.00 0.00 0.00 0.00 0.01 0.01 0.01 0.01 0.01 0.01 0.02 0.01 0.01 0.01 0.01 0.01 0.01 0.01 0.01 0.01 0.01 0.01 0.01 0.01 0.01 0.01 0.01 0.01 0.01 0.01 0.01 0.01 0.01 0.01 0.01 0.01 0.01 0.02 0.04 0.06 0.08 0.10 0.12 0.14 0.15 0.18 0.21 0.20 0.15 0.08 0.02 0.01 0.00 0.00 0.00 0.00 0.00
0.00 0.00 0.00 0.00 0.00 0.00 0.00 0.00 0.00 0.00 0.00 0.00 0.00 0.00 0.00 0.00 0.00 0.01 0.01 0.01 0.01 0.02 0.02 0.02 0.01 0.01 0.01 0.02 0.02 0.02 0.02 0.02 0.02 0.02 0.02 0.02 0.01 0.01 0.01 0.01 0.01 0.01 0.01 0.02 0.02 0.02 0.02 0.01 0.01 0.02 0.03 0.05 0.09 0.13 0.15 0.14 0.17 0.20 0.21 0.22 0.19 0.13 0.08 0.03 0.01 0.00 0.00 0.00 0.00
0.00 0.00 0.00 0.00 0.00 0.01 0.01 0.01 0.00 0.00 0.00 0.00 0.00 0.00 0.01 0.00 0.00 0.01 0.01 0.01 0.02 0.02 0.02 0.02 0.02 0.02 0.02 0.02 0.02 0.02 0.02 0.02 0.02 0.02 0.02 0.02 0.02 0.02 0.01 0.01 0.01 0.01 0.02 0.04 0.05 0.06 0.06 0.04 0.02 0.02 0.02 0.04 0.08 0.13 0.16 0.15 0.16 0.17 0.19 0.22 0.23 0.21 0.17 0.12 0.06 0.04 0.02 0.01 0.00
0.00 0.00 0.00 0.01 0.01 0.01 0.01 0.01 0.01 0.00 0.00 0.00 0.00 0.01 0.01 0.01 0.01 0.01 0.01 0.02 0.02 0.02 0.02 0.02 0.02 0.02 0.02 0.02 0.02 0.02 0.03 0.03 0.03 0.03 0.03 0.03 0.03 0.02 0.02 0.02 0.01 0.03 0.05 0.08 0.10 0.12 0.11 0.10 0.07 0.04 0.03 0.04 0.05 0.08 0.10 0.10 0.12 0.12 0.13 0.14 0.16 0.17 0.18 0.18 0.15 0.12 0.08 0.04 0.02
0.00 0.00 0.01 0.01 0.01 0.01 0.01 0.01 0.01 0.00 0.00 0.00 0.00 0.01 0.01 0.01 0.01 0.01 0.01 0.01 0.02 0.02 0.02 0.02 0.02 0.02 0.02 0.02 0.02 0.02 0.03 0.03 0.04 0.04 0.04 0.03 0.03 0.03 0.02 0.02 0.02 0.04 0.07 0.11 0.16 0.19 0.19 0.17 0.14 0.10 0.07 0.05 0.06 0.07 0.08 0.10 0.11 0.11 0.10 0.09 0.09 0.10 0.11 0.14 0.16 0.15 0.12 0.09 0.06
0.00 0.01 0.01 0.01 0.01 0.01 0.01 0.01 0.01 0.00 0.00 0.00 0.00 0.00 0.01 0.01 0.01 0.01 0.01 0.01 0.02 0.02 0.02 0.02 0.02 0.02 0.02 0.02 0.02 0.02 0.02 0.03 0.04 0.05 0.05 0.04 0.04 0.03 0.02 0.02 0.02 0.04 0.07 0.13 0.18 0.23 0.26 0.27 0.24 0.21 0.16 0.08 0.08 0.10 0.12 0.12 0.13 0.11 0.09 0.07 0.05 0.05 0.05 0.07 0.08 0.08 0.08 0.10 0.10
0.01 0.01 0.01 0.01 0.01 0.01 0.00 0.00 0.00 0.00 0.00 0.00 0.00 0.00 0.00 0.01 0.01 0.01 0.01 0.01 0.01 0.02 0.02 0.02 0.02 0.02 0.02 0.02 0.02 0.02 0.03 0.04 0.04 0.05 0.05 0.05 0.05 0.04 0.04 0.04 0.04 0.04 0.07 0.15 0.20 0.23 0.27 0.30 0.31 0.30 0.26 0.21 0.15 0.15 0.16 0.13 0.12 0.10 0.08 0.06 0.04 0.02 0.02 0.03 0.02 0.02 0.03 0.05 0.07
0.01 0.01 0.01 0.00 0.00 0.00 0.00 0.00 0.00 0.00 0.00 0.00 0.00 0.00 0.00 0.00 0.01 0.01 0.01 0.01 0.01 0.02 0.02 0.02 0.02 0.02 0.02 0.02 0.02 0.03 0.03 0.04 0.05 0.05 0.06 0.07 0.06 0.06 0.06 0.05 0.05 0.05 0.06 0.11 0.16 0.20 0.22 0.26 0.29 0.32 0.33 0.33 0.27 0.23 0.20 0.16 0.12 0.10 0.07 0.05 0.03 0.02 0.01 0.01 0.01 0.01 0.02 0.02 0.03
0.01 0.01 0.00 0.00 0.00 0.00 0.00 0.00 0.00 0.00 0.00 0.00 0.00 0.00 0.00 0.00 0.01 0.01 0.01 0.00 0.01 0.02 0.02 0.02 0.02 0.02 0.02 0.02 0.02 0.03 0.04 0.04 0.05 0.06 0.07 0.08 0.07 0.07 0.07 0.07 0.06 0.05 0.05 0.06 0.08 0.11 0.15 0.19 0.23 0.27 0.30 0.33 0.32 0.30 0.26 0.19 0.14 0.10 0.08 0.05 0.03 0.02 0.02 0.03 0.02 0.02 0.02 0.02 0.02
0.01 0.01 0.00 0.00 0.00 0.00 0.00 0.00 0.00 0.00 0.00 0.00 0.00 0.00 0.00 0.00 0.01 0.01 0.01 0.01 0.01 0.01 0.02 0.02 0.02 0.02 0.02 0.02 0.02 0.03 0.03 0.04 0.05 0.06 0.07 0.07 0.08 0.08 0.08 0.08 0.07 0.06 0.05 0.06 0.06 0.08 0.10 0.14 0.18 0.22 0.26 0.29 0.29 0.29 0.28 0.24 0.19 0.15 0.10 0.07 0.06 0.05 0.05 0.09 0.07 0.06 0.05 0.04 0.04
0.01 0.00 0.00 0.00 0.00 0.00 0.00 0.00 0.00 0.00 0.00 0.00 0.00 0.00 0.00 0.00 0.01 0.01 0.01 0.00 0.01 0.01 0.02 0.02 0.02 0.03 0.02 0.02 0.02 0.03 0.04 0.04 0.05 0.06 0.06 0.06 0.07 0.08 0.09 0.09 0.08 0.07 0.06 0.06 0.06 0.08 0.09 0.11 0.15 0.18 0.21 0.21 0.22 0.23 0.25 0.25 0.22 0.18 0.14 0.11 0.10 0.09 0.10 0.12 0.11 0.10 0.09 0.08 0.08
0.00 0.00 0.00 0.00 0.00 0.00 0.00 0.00 0.00 0.00 0.00 0.00 0.00 0.00 0.00 0.01 0.01 0.01 0.01 0.00 0.01 0.01 0.01 0.02 0.02 0.03 0.03 0.02 0.03 0.03 0.04 0.04 0.04 0.04 0.04 0.05 0.05 0.07 0.09 0.10 0.10 0.09 0.08 0.06 0.07 0.08 0.09 0.10 0.12 0.14 0.16 0.16 0.18 0.20 0.21 0.22 0.20 0.18 0.15 0.13 0.11 0.11 0.12 0.15 0.14 0.14 0.13 0.12 0.12
0.00 0.00 0.00 0.00 0.00 0.00 0.00 0.00 0.00 0.00 0.00 0.00 0.00 0.00 0.00 0.00 0.01 0.01 0.01 0.00 0.01 0.01 0.01 0.02 0.02 0.02 0.03 0.03 0.03 0.03 0.03 0.03 0.02 0.02 0.02 0.03 0.03 0.04 0.05 0.07 0.09 0.10 0.10 0.08 0.08 0.08 0.10 0.11 0.11 0.12 0.13 0.14 0.16 0.18 0.19 0.19 0.20 0.20 0.18 0.16 0.14 0.14 0.16 0.18 0.17 0.17 0.16 0.15 0.15
0.00 0.00 0.00 0.00 0.00 0.00 0.00 0.00 0.00 0.00 0.00 0.00 0.00 0.00 0.00 0.00 0.01 0.01 0.01 0.01 0.01 0.01 0.01 0.02 0.02 0.02 0.02 0.02 0.02 0.02 0.02 0.01 0.01 0.01 0.01 0.01 0.01 0.02 0.03 0.05 0.07 0.09 0.11 0.11 0.08 0.08 0.09 0.10 0.11 0.11 0.11 0.12 0.13 0.14 0.15 0.16 0.17 0.18 0.18 0.18 0.17 0.16 0.15 0.17 0.17 0.17 0.17 0.16 0.16
0.00 0.00 0.00 0.00 0.00 0.00 0.00 0.00 0.00 0.00 0.00 0.00 0.00 0.00 0.00 0.00 0.01 0.01 0.01 0.01 0.01 0.01 0.02 0.02 0.02 0.01 0.02 0.02 0.01 0.01 0.01 0.01 0.00 0.00 0.00 0.00 0.01 0.01 0.02 0.03 0.07 0.10 0.12 0.13 0.09 0.07 0.06 0.07 0.08 0.08 0.07 0.09 0.10 0.11 0.11 0.12 0.12 0.12 0.12 0.13 0.13 0.11 0.10 0.12 0.13 0.14 0.15 0.15 0.15
0.00 0.00 0.00 0.00 0.00 0.00 0.00 0.00 0.00 0.00 0.00 0.00 0.00 0.00 0.00 0.00 0.01 0.01 0.01 0.01 0.01 0.02 0.02 0.02 0.02 0.01 0.01 0.01 0.01 0.01 0.01 0.00 0.00 0.00 0.00 0.00 0.01 0.01 0.02 0.03 0.08 0.12 0.15 0.17 0.12 0.08 0.06 0.05 0.05 0.05 0.05 0.07 0.07 0.07 0.08 0.07 0.07 0.07 0.07 0.07 0.05 0.05 0.06 0.08 0.08 0.09 0.11 0.12 0.13
0.00 0.00 0.00 0.00 0.00 0.00 0.00 0.00 0.00 0.00 0.00 0.00 0.00 0.00 0.00 0.00 0.00 0.01 0.01 0.01 0.01 0.02 0.02 0.02 0.02 0.02 0.01 0.01 0.01 0.01 0.00 0.00 0.00 0.00 0.00 0.00 0.00 0.01 0.02 0.03 0.05 0.11 0.17 0.19 0.17 0.11 0.06 0.05 0.04 0.03 0.03 0.04 0.04 0.04 0.04 0.04 0.03 0.03 0.03 0.04 0.03 0.03 0.03 0.04 0.06 0.07 0.07 0.09 0.10
0.00 0.00 0.00 0.00 0.00 0.00 0.00 0.00 0.00 0.00 0.00 0.00 0.00 0.00 0.00 0.00 0.00 0.01 0.01 0.01 0.01 0.02 0.03 0.02 0.02 0.02 0.02 0.01 0.01 0.01 0.00 0.00 0.00 0.00 0.00 0.00 0.00 0.00 0.01 0.01 0.03 0.05 0.09 0.18 0.23 0.16 0.06 0.04 0.03 0.02 0.02 0.02 0.02 0.02 0.02 0.02 0.02 0.02 0.02 0.02 0.02 0.02 0.02 0.03 0.04 0.05 0.06 0.07 0.08
0.00 0.00 0.00 0.00 0.00 0.00 0.00 0.00 0.00 0.00 0.00 0.00 0.00 0.00 0.00 0.00 0.00 0.00 0.01 0.01 0.01 0.02 0.04 0.03 0.02 0.02 0.02 0.02 0.01 0.01 0.00 0.00 0.00 0.00 0.00 0.00 0.00 0.00 0.00 0.01 0.01 0.02 0.05 0.13 0.25 0.19 0.07 0.03 0.03 0.02 0.02 0.01 0.01 0.01 0.01 0.02 0.02 0.02 0.02 0.02 0.02 0.02 0.03 0.03 0.03 0.03 0.04 0.05 0.07
0.00 0.00 0.00 0.00 0.00 0.00 0.00 0.00 0.00 0.00 0.00 0.00 0.00 0.00 0.00 0.00 0.00 0.00 0.00 0.00 0.01 0.03 0.04 0.04 0.02 0.02 0.02 0.02 0.01 0.01 0.01 0.00 0.00 0.00 0.00 0.00 0.00 0.00 0.00 0.00 0.01 0.01 0.02 0.04 0.25 0.20 0.08 0.03 0.03 0.02 0.02 0.01 0.01 0.01 0.01 0.02 0.02 0.02 0.02 0.03 0.03 0.03 0.04 0.04 0.04 0.04 0.04 0.04 0.04
0.00 0.00 0.00 0.00 0.00 0.00 0.00 0.00 0.00 0.00 0.00 0.00 0.00 0.00 0.00 0.00 0.00 0.00 0.00 0.00 0.00 0.01 0.02 0.03 0.02 0.01 0.01 0.01 0.01 0.01 0.01 0.01 0.00 0.00 0.00 0.00 0.00 0.00 0.00 0.00 0.01 0.01 0.02 0.03 0.06 0.08 0.08 0.03 0.03 0.02 0.02 0.01 0.01 0.01 0.01 0.02 0.02 0.02 0.03 0.03 0.04 0.04 0.04 0.04 0.04 0.04 0.04 0.04 0.04
0.00 0.00 0.00 0.00 0.00 0.00 0.00 0.00 0.00 0.00 0.00 0.00 0.00 0.00 0.00 0.00 0.00 0.00 0.00 0.00 0.00 0.00 0.01 0.03 0.02 0.02 0.01 0.02 0.01 0.01 0.01 0.01 0.01 0.00 0.00 0.00 0.00 0.00 0.00 0.00 0.00 0.01 0.02 0.03 0.12 0.20 0.19 0.02 0.02 0.01 0.01 0.01 0.01 0.01 0.01 0.01 0.01 0.02 0.02 0.02 0.03 0.03 0.04 0.04 0.05 0.05 0.04 0.04 0.05
0.00 0.00 0.00 0.00 0.00 0.00 0.00 0.00 0.00 0.00 0.00 0.00 0.00 0.00 0.00 0.00 0.00 0.00 0.00 0.00 0.00 0.00 0.01 0.02 0.02 0.02 0.02 0.02 0.01 0.01 0.01 0.01 0.01 0.00 0.00 0.00 0.00 0.00 0.00 0.00 0.00 0.01 0.02 0.05 0.18 0.19 0.12 0.01 0.01 0.00 0.00 0.00 0.00 0.00 0.00 0.00 0.01 0.00 0.00 0.00 0.01 0.01 0.02 0.03 0.04 0.05 0.05 0.05 0.05
0.00 0.00 0.00 0.00 0.00 0.00 0.00 0.00 0.00 0.00 0.00 0.00 0.00 0.00 0.00 0.00 0.00 0.00 0.00 0.00 0.00 0.00 0.00 0.01 0.01 0.01 0.02 0.02 0.01 0.01 0.01 0.01 0.00 0.00 0.00 0.00 0.00 0.00 0.00 0.00 0.01 0.01 0.04 0.11 0.22 0.17 0.07 0.01 0.01 0.00 0.00 0.00 0.00 0.00 0.00 0.00 0.00 0.00 0.00 0.00 0.00 0.00 0.01 0.02 0.03 0.04 0.04 0.05 0.04
0.00 0.00 0.00 0.00 0.00 0.00 0.00 0.00 0.00 0.00 0.00 0.00 0.00 0.00 0.00 0.00 0.00 0.00 0.00 0.00 0.00 0.00 0.00 0.00 0.00 0.00 0.01 0.01 0.01 0.01 0.01 0.01 0.00 0.00 0.00 0.00 0.00 0.00 0.00 0.00 0.01 0.02 0.04 0.12 0.24 0.16 0.04 0.01 0.01 0.00 0.00 0.00 0.00 0.00 0.00 0.00 0.00 0.00 0.00 0.00 0.00 0.00 0.00 0.00 0.01 0.02 0.03 0.04 0.03
0.00 0.00 0.00 0.00 0.00 0.00 0.00 0.00 0.00 0.00 0.00 0.00 0.00 0.00 0.00 0.00 0.00 0.00 0.00 0.00 0.00 0.00 0.00 0.00 0.00 0.00 0.00 0.01 0.01 0.01 0.01 0.01 0.00 0.00 0.00 0.00 0.00 0.00 0.00 0.00 0.01 0.02 0.04 0.11 0.28 0.18 0.02 0.01 0.01 0.01 0.00 0.00 0.00 0.00 0.00 0.00 0.00 0.00 0.00 0.00 0.00 0.00 0.00 0.00 0.00 0.01 0.02 0.03 0.03
0.00 0.00 0.00 0.00 0.00 0.00 0.00 0.00 0.00 0.00 0.00 0.00 0.00 0.00 0.00 0.00 0.00 0.00 0.00 0.00 0.00 0.00 0.00 0.00 0.00 0.00 0.00 0.00 0.01 0.01 0.01 0.01 0.01 0.00 0.00 0.00 0.00 0.00 0.00 0.00 0.01 0.01 0.03 0.07 0.30 0.20 0.02 0.01 0.01 0.01 0.00 0.00 0.00 0.00 0.00 0.00 0.00 0.00 0.00 0.00 0.01 0.01 0.01 0.00 0.00 0.01 0.01 0.02 0.03
0.00 0.00 0.00 0.00 0.00 0.00 0.00 0.00 0.00 0.00 0.00 0.00 0.00 0.00 0.00 0.00 0.00 0.00 0.00 0.00 0.00 0.00 0.00 0.00 0.00 0.00 0.00 0.00 0.01 0.01 0.01 0.01 0.00 0.00 0.00 0.00 0.00 0.00 0.00 0.00 0.00 0.00 0.01 0.04 0.27 0.19 0.03 0.01 0.01 0.01 0.01 0.00 0.00 0.00 0.00 0.00 0.00 0.00 0.00 0.00 0.01 0.02 0.02 0.01 0.00 0.00 0.00 0.00 0.01
0.00 0.00 0.00 0.00 0.00 0.00 0.00 0.00 0.00 0.00 0.00 0.00 0.00 0.00 0.00 0.00 0.00 0.00 0.00 0.00 0.00 0.00 0.00 0.00 0.00 0.00 0.00 0.00 0.00 0.01 0.01 0.01 0.00 0.00 0.00 0.00 0.00 0.00 0.00 0.00 0.00 0.00 0.01 0.01 0.21 0.17 0.05 0.01 0.01 0.01 0.01 0.00 0.00 0.00 0.00 0.00 0.00 0.00 0.00 0.00 0.01 0.02 0.02 0.01 0.00 0.00 0.00 0.00 0.00
0.00 0.00 0.00 0.00 0.00 0.00 0.00 0.00 0.00 0.00 0.00 0.00 0.00 0.00 0.00 0.00 0.00 0.00 0.00 0.00 0.00 0.00 0.00 0.00 0.00 0.00 0.00 0.00 0.00 0.01 0.01 0.00 0.00 0.00 0.00 0.00 0.00 0.00 0.00 0.00 0.00 0.00 0.00 0.00 0.13 0.15 0.10 0.02 0.01 0.01 0.01 0.00 0.00 0.00 0.00 0.00 0.00 0.00 0.00 0.00 0.00 0.01 0.01 0.01 0.00 0.00 0.00 0.00 0.00
0.00 0.00 0.00 0.00 0.00 0.00 0.00 0.00 0.00 0.00 0.00 0.00 0.00 0.00 0.00 0.00 0.00 0.00 0.00 0.00 0.00 0.00 0.00 0.00 0.00 0.00 0.00 0.00 0.00 0.01 0.01 0.00 0.00 0.00 0.00 0.00 0.00 0.00 0.00 0.00 0.00 0.00 0.00 0.00 0.06 0.14 0.17 0.05 0.02 0.01 0.01 0.00 0.00 0.00 0.00 0.00 0.00 0.00 0.00 0.00 0.00 0.00 0.00 0.00 0.00 0.00 0.00 0.00 0.00
MSLP
1023.89 1023.65 1023.37 1023.05 1022.73 1022.45 1022.21 1021.93 1021.65 1021.45 1021.21 1020.97 1020.69 1020.41 1020.09 1019.77 1019.49 1019.17 1018.89 1018.65 1018.37 1018.09 1017.77 1017.49 1017.21 1016.89 1016.57 1016.33 1016.17 1015.89 1015.53 1015.17 1014.85 1014.57 1014.29 1014.01 1013.77 1013.49 1013.21 1012.89 1012.61 1012.29 1012.01 1011.65 1011.37 1011.05 1010.73 1010.41 1010.17 1009.93 1009.65 1009.41 1009.21 1009.13 1008.97 1008.81 1008.77 1008.73 1008.73 1008.65 1008.45 1008.29 1008.29 1008.33 1008.13 1007.65 1007.05 1006.65 1006.61
1023.93 1023.69 1023.41 1023.13 1022.89 1022.61 1022.29 1021.97 1021.73 1021.49 1021.37 1021.13 1020.85 1020.53 1020.21 1019.93 1019.61 1019.29 1019.05 1018.77 1018.53 1018.25 1017.93 1017.53 1017.21 1016.89 1016.61 1016.33 1016.09 1015.81 1015.49 1015.13 1014.77 1014.49 1014.21 1013.93 1013.65 1013.37 1013.09 1012.77 1012.45 1012.13 1011.85 1011.53 1011.21 1010.93 1010.65 1010.33 1010.05 1009.81 1009.49 1009.25 1009.13 1008.97 1008.77 1008.65 1008.65 1008.65 1008.65 1008.53 1008.37 1008.21 1008.17 1008.21 1008.21 1007.77 1007.17 1006.57 1006.53
1024.01 1023.73 1023.45 1023.17 1022.93 1022.65 1022.37 1022.05 1021.81 1021.65 1021.45 1021.21 1020.93 1020.65 1020.33 1020.05 1019.77 1019.49 1019.21 1018.89 1018.65 1018.33 1017.97 1017.61 1017.21 1016.89 1016.57 1016.25 1015.93 1015.69 1015.41 1015.09 1014.77 1014.45 1014.09 1013.77 1013.49 1013.21 1012.93 1012.61 1012.29 1011.97 1011.65 1011.37 1011.09 1010.81 1010.53 1010.25 1009.97 1009.65 1009.37 1009.17 1009.01 1008.81 1008.65 1008.45 1008.45 1008.49 1008.49 1008.41 1008.25 1008.09 1008.01 1008.05 1008.21 1008.05 1007.45 1006.69 1006.45
1024.05 1023.77 1023.49 1023.21 1022.97 1022.77 1022.49 1022.25 1022.01 1021.77 1021.53 1021.25 1020.97 1020.69 1020.49 1020.21 1019.89 1019.61 1019.33 1018.93 1018.65 1018.33 1018.01 1017.65 1017.25 1016.85 1016.49 1016.17 1015.81 1015.53 1015.25 1014.97 1014.69 1014.33 1014.01 1013.65 1013.33 1013.05 1012.77 1012.45 1012.09 1011.77 1011.45 1011.17 1010.93 1010.65 1010.33 1010.13 1009.85 1009.53 1009.25 1009.05 1008.89 1008.65 1008.45 1008.25 1008.21 1008.25 1008.33 1008.33 1008.17 1007.97 1007.93 1008.05 1008.21 1008.21 1007.85 1007.13 1006.65
1024.09 1023.85 1023.61 1023.33 1023.05 1022.85 1022.65 1022.45 1022.21 1021.93 1021.65 1021.37 1021.09 1020.81 1020.57 1020.29 1020.01 1019.69 1019.33 1018.93 1018.65 1018.29 1017.97 1017.65 1017.21 1016.81 1016.45 1016.09 1015.77 1015.45 1015.09 1014.77 1014.49 1014.17 1013.81 1013.49 1013.13 1012.81 1012.53 1012.21 1011.93 1011.57 1011.21 1010.93 1010.65 1010.41 1010.17 1009.93 1009.65 1009.37 1009.09 1008.93 1008.73 1008.53 1008.33 1008.17 1008.05 1008.13 1008.21 1008.21 1008.05 1007.93 1007.89 1008.05 1008.21 1008.29 1008.05 1007.57 1007.17
1024.17 1023.93 1023.65 1023.41 1023.17 1022.93 1022.77 1022.61 1022.33 1022.09 1021.81 1021.49 1021.21 1020.93 1020.65 1020.41 1020.05 1019.77 1019.45 1019.05 1018.65 1018.33 1017.93 1017.53 1017.17 1016.77 1016.37 1016.01 1015.65 1015.25 1014.93 1014.57 1014.25 1013.93 1013.65 1013.25 1012.93 1012.61 1012.29 1011.97 1011.65 1011.37 1011.05 1010.77 1010.49 1010.21 1009.97 1009.69 1009.45 1009.17 1008.93 1008.77 1008.65 1008.49 1008.33 1008.17 1008.05 1008.09 1008.25 1008.33 1008.21 1008.01 1007.93 1008.05 1008.21 1008.29 1008.13 1007.73 1007.57
1024.33 1024.05 1023.77 1023.49 1023.25 1023.05 1022.89 1022.69 1022.41 1022.17 1021.89 1021.61 1021.33 1021.05 1020.77 1020.49 1020.17 1019.85 1019.49 1019.05 1018.65 1018.25 1017.89 1017.49 1017.09 1016.77 1016.33 1015.97 1015.53 1015.13 1014.77 1014.37 1014.05 1013.73 1013.41 1013.05 1012.73 1012.37 1012.05 1011.73 1011.45 1011.17 1010.85 1010.57 1010.29 1010.01 1009.77 1009.53 1009.29 1009.01 1008.77 1008.65 1008.57 1008.37 1008.25 1008.21 1008.09 1008.21 1008.45 1008.65 1008.49 1008.37 1008.29 1008.21 1008.21 1008.25 1008.13 1007.85 1007.85
1024.41 1024.09 1023.85 1023.65 1023.41 1023.21 1022.97 1022.77 1022.49 1022.21 1021.93 1021.65 1021.41 1021.13 1020.81 1020.49 1020.17 1019.81 1019.45 1019.05 1018.69 1018.29 1017.93 1017.53 1017.17 1016.77 1016.37 1016.01 1015.53 1015.09 1014.69 1014.25 1013.89 1013.49 1013.17 1012.85 1012.49 1012.13 1011.77 1011.49 1011.17 1010.85 1010.57 1010.29 1010.05 1009.81 1009.57 1009.37 1009.13 1008.89 1008.65 1008.53 1008.49 1008.33 1008.21 1008.25 1008.21 1008.45 1008.81 1009.05 1009.05 1009.05 1008.85 1008.41 1008.21 1008.13 1008.05 1007.97 1008.09
1024.45 1024.17 1023.93 1023.73 1023.53 1023.33 1023.05 1022.85 1022.61 1022.29 1022.01 1021.77 1021.49 1021.21 1020.93 1020.53 1020.17 1019.81 1019.49 1019.09 1018.69 1018.33 1017.93 1017.57 1017.17 1016.77 1016.37 1016.01 1015.57 1015.13 1014.69 1014.29 1013.85 1013.45 1013.05 1012.69 1012.33 1011.93 1011.57 1011.21 1010.89 1010.57 1010.29 1010.01 1009.81 1009.57 1009.37 1009.17 1008.93 1008.73 1008.53 1008.41 1008.33 1008.25 1008.21 1008.17 1008.21 1008.53 1008.93 1009.17 1009.21 1009.13 1008.77 1008.21 1007.97 1007.85 1007.77 1007.77 1007.85
1024.53 1024.25 1024.01 1023.77 1023.65 1023.41 1023.13 1022.89 1022.65 1022.33 1022.05 1021.81 1021.57 1021.25 1020.93 1020.61 1020.25 1019.93 1019.57 1019.21 1018.77 1018.33 1017.97 1017.61 1017.21 1016.85 1016.49 1016.05 1015.65 1015.25 1014.85 1014.41 1013.97 1013.49 1013.05 1012.61 1012.17 1011.73 1011.37 1010.97 1010.65 1010.33 1010.01 1009.77 1009.53 1009.33 1009.09 1008.93 1008.73 1008.57 1008.41 1008.25 1008.21 1008.17 1008.13 1008.05 1008.21 1008.49 1008.77 1008.97 1008.93 1008.61 1008.17 1007.77 1007.65 1007.57 1007.49 1007.49 1007.57
1024.65 1024.33 1024.13 1023.93 1023.77 1023.49 1023.25 1022.97 1022.65 1022.37 1022.09 1021.89 1021.61 1021.29 1020.93 1020.65 1020.29 1019.97 1019.65 1019.21 1018.77 1018.37 1018.01 1017.65 1017.33 1016.93 1016.57 1016.21 1015.77 1015.41 1015.01 1014.57 1014.13 1013.65 1013.17 1012.65 1012.21 1011.77 1011.33 1010.93 1010.49 1010.17 1009.81 1009.53 1009.29 1009.09 1008.93 1008.73 1008.57 1008.41 1008.25 1008.09 1008.05 1008.05 1008.09 1008.05 1008.17 1008.33 1008.53 1008.61 1008.53 1008.29 1008.01 1007.85 1007.85 1007.77 1007.65 1007.57 1007.57
1024.77 1024.49 1024.25 1024.05 1023.89 1023.65 1023.37 1023.05 1022.77 1022.45 1022.21 1021.93 1021.65 1021.37 1021.05 1020.69 1020.37 1020.05 1019.65 1019.25 1018.81 1018.41 1018.05 1017.73 1017.45 1017.09 1016.73 1016.33 1015.97 1015.57 1015.13 1014.69 1014.25 1013.77 1013.29 1012.77 1012.37 1011.93 1011.49 1011.05 1010.65 1010.21 1009.77 1009.37 1009.09 1008.89 1008.69 1008.57 1008.45 1008.29 1008.13 1007.97 1007.85 1007.85 1007.93 1008.05 1008.09 1008.21 1008.25 1008.29 1008.29 1008.09 1007.97 1007.97 1008.09 1008.17 1008.05 1007.85 1007.73
1024.93 1024.65 1024.37 1024.21 1023.97 1023.73 1023.49 1023.21 1022.89 1022.57 1022.29 1022.05 1021.77 1021.41 1021.09 1020.77 1020.45 1020.05 1019.69 1019.29 1018.89 1018.49 1018.13 1017.81 1017.53 1017.21 1016.93 1016.57 1016.21 1015.77 1015.33 1014.85 1014.41 1013.93 1013.49 1013.01 1012.65 1012.21 1011.81 1011.37 1010.93 1010.45 1009.93 1009.37 1009.01 1008.73 1008.57 1008.45 1008.37 1008.25 1008.05 1007.89 1007.69 1007.65 1007.77 1007.89 1007.97 1008.05 1008.05 1008.05 1008.05 1008.01 1007.97 1008.05 1008.21 1008.29 1008.25 1008.09 1007.97
1025.09 1024.81 1024.57 1024.33 1024.13 1023.93 1023.65 1023.33 1023.01 1022.69 1022.41 1022.17 1021.85 1021.53 1021.21 1020.85 1020.49 1020.17 1019.81 1019.41 1018.97 1018.61 1018.25 1017.93 1017.65 1017.37 1017.09 1016.77 1016.37 1015.93 1015.49 1015.09 1014.65 1014.17 1013.69 1013.21 1012.81 1012.45 1012.05 1011.65 1011.21 1010.77 1010.21 1009.65 1009.09 1008.69 1008.49 1008.33 1008.25 1008.21 1008.05 1007.89 1007.65 1007.57 1007.57 1007.65 1007.77 1007.85 1007.89 1007.93 1007.93 1007.89 1007.89 1007.93 1008.05 1008.17 1008.21 1008.25 1008.25
1025.21 1024.97 1024.69 1024.49 1024.29 1024.05 1023.77 1023.49 1023.17 1022.85 1022.57 1022.29 1021.97 1021.65 1021.33 1020.97 1020.65 1020.33 1019.93 1019.49 1019.09 1018.69 1018.37 1018.05 1017.77 1017.49 1017.21 1016.93 1016.53 1016.13 1015.69 1015.29 1014.89 1014.45 1013.97 1013.49 1013.01 1012.65 1012.29 1011.89 1011.49 1011.05 1010.57 1010.05 1009.45 1008.93 1008.53 1008.33 1008.21 1008.13 1008.05 1007.93 1007.77 1007.65 1007.53 1007.49 1007.57 1007.65 1007.73 1007.77 1007.77 1007.81 1007.81 1007.77 1007.85 1007.97 1008.09 1008.21 1008.33
1025.41 1025.13 1024.85 1024.65 1024.45 1024.21 1023.97 1023.65 1023.37 1023.05 1022.77 1022.49 1022.13 1021.77 1021.49 1021.13 1020.77 1020.45 1020.05 1019.61 1019.21 1018.77 1018.49 1018.21 1017.93 1017.65 1017.37 1017.05 1016.73 1016.33 1015.93 1015.49 1015.13 1014.73 1014.29 1013.77 1013.33 1012.89 1012.49 1012.17 1011.77 1011.37 1010.93 1010.49 1009.97 1009.49 1009.01 1008.65 1008.41 1008.21 1008.13 1008.01 1007.93 1007.85 1007.77 1007.69 1007.61 1007.65 1007.73 1007.77 1007.81 1007.85 1007.85 1007.81 1007.81 1007.89 1007.97 1008.05 1008.21
1025.61 1025.33 1025.05 1024.81 1024.61 1024.37 1024.13 1023.85 1023.57 1023.25 1022.97 1022.65 1022.29 1021.93 1021.57 1021.25 1020.93 1020.57 1020.21 1019.77 1019.37 1018.93 1018.57 1018.29 1018.05 1017.77 1017.49 1017.21 1016.89 1016.49 1016.13 1015.77 1015.41 1015.05 1014.65 1014.17 1013.65 1013.17 1012.77 1012.49 1012.13 1011.77 1011.37 1010.93 1010.53 1010.09 1009.69 1009.29 1008.93 1008.69 1008.49 1008.33 1008.25 1008.29 1008.33 1008.21 1008.05 1007.93 1007.85 1007.89 1007.93 1008.01 1007.97 1007.97 1007.97 1008.01 1008.01 1008.05 1008.17
1025.77 1025.49 1025.21 1025.01 1024.73 1024.49 1024.25 1024.01 1023.69 1023.41 1023.09 1022.77 1022.41 1022.05 1021.69 1021.37 1021.05 1020.69 1020.33 1019.93 1019.49 1019.09 1018.69 1018.37 1018.13 1017.93 1017.65 1017.37 1017.05 1016.73 1016.37 1016.01 1015.65 1015.37 1014.97 1014.53 1014.05 1013.53 1013.09 1012.77 1012.45 1012.09 1011.73 1011.37 1011.01 1010.69 1010.33 1009.97 1009.65 1009.37 1009.13 1008.89 1008.77 1008.81 1008.85 1008.81 1008.65 1008.33 1008.17 1008.13 1008.13 1008.21 1008.25 1008.29 1008.25 1008.21 1008.17 1008.13 1008.21
1025.93 1025.65 1025.41 1025.17 1024.89 1024.65 1024.37 1024.09 1023.77 1023.49 1023.21 1022.89 1022.49 1022.13 1021.77 1021.49 1021.13 1020.77 1020.41 1020.01 1019.61 1019.21 1018.85 1018.49 1018.21 1018.01 1017.77 1017.53 1017.21 1016.93 1016.57 1016.21 1015.89 1015.57 1015.21 1014.81 1014.33 1013.89 1013.41 1013.01 1012.69 1012.37 1012.09 1011.77 1011.49 1011.21 1010.89 1010.61 1010.33 1010.05 1009.77 1009.49 1009.33 1009.29 1009.29 1009.21 1009.05 1008.77 1008.53 1008.41 1008.37 1008.41 1008.49 1008.57 1008.57 1008.49 1008.37 1008.33 1008.37
1026.13 1025.85 1025.57 1025.33 1025.05 1024.77 1024.53 1024.21 1023.93 1023.61 1023.25 1022.93 1022.61 1022.21 1021.85 1021.49 1021.21 1020.85 1020.49 1020.13 1019.73 1019.33 1018.97 1018.65 1018.37 1018.13 1017.89 1017.65 1017.37 1017.05 1016.69 1016.41 1016.09 1015.73 1015.37 1015.01 1014.61 1014.17 1013.73 1013.29 1012.93 1012.65 1012.41 1012.17 1011.93 1011.65 1011.37 1011.13 1010.85 1010.57 1010.29 1010.05 1009.89 1009.77 1009.65 1009.57 1009.41 1009.21 1008.97 1008.81 1008.77 1008.81 1008.85 1008.85 1008.81 1008.77 1008.69 1008.65 1008.65
1026.33 1026.05 1025.77 1025.49 1025.21 1024.93 1024.65 1024.33 1024.01 1023.65 1023.33 1023.01 1022.65 1022.29 1021.93 1021.57 1021.21 1020.89 1020.57 1020.21 1019.85 1019.45 1019.05 1018.77 1018.53 1018.29 1018.01 1017.77 1017.49 1017.17 1016.89 1016.57 1016.25 1015.93 1015.53 1015.17 1014.77 1014.45 1014.05 1013.65 1013.21 1012.89 1012.65 1012.41 1012.21 1012.05 1011.81 1011.61 1011.33 1011.05 1010.77 1010.53 1010.37 1010.25 1010.09 1009.93 1009.77 1009.61 1009.45 1009.33 1009.29 1009.25 1009.21 1009.21 1009.17 1009.05 1008.97 1008.93 1008.85
1026.49 1026.25 1025.97 1025.69 1025.37 1025.05 1024.77 1024.45 1024.09 1023.73 1023.37 1023.05 1022.69 1022.33 1021.97 1021.65 1021.29 1020.97 1020.65 1020.33 1019.93 1019.53 1019.17 1018.85 1018.65 1018.41 1018.21 1017.93 1017.65 1017.37 1017.05 1016.73 1016.41 1016.05 1015.73 1015.37 1015.01 1014.65 1014.29 1013.93 1013.57 1013.17 1012.77 1012.53 1012.37 1012.29 1012.21 1012.05 1011.77 1011.53 1011.25 1011.05 1010.85 1010.69 1010.53 1010.37 1010.21 1010.05 1009.93 1009.77 1009.73 1009.65 1009.57 1009.53 1009.49 1009.41 1009.29 1009.21 1009.09
1026.65 1026.41 1026.13 1025.85 1025.49 1025.17 1024.81 1024.49 1024.17 1023.77 1023.45 1023.09 1022.77 1022.41 1022.05 1021.73 1021.37 1021.05 1020.73 1020.41 1020.05 1019.65 1019.29 1018.93 1018.73 1018.49 1018.33 1018.09 1017.81 1017.57 1017.25 1016.89 1016.53 1016.21 1015.89 1015.53 1015.21 1014.81 1014.45 1014.09 1013.77 1013.41 1013.01 1012.65 1012.49 1012.49 1012.45 1012.37 1012.21 1011.93 1011.73 1011.49 1011.33 1011.17 1011.01 1010.85 1010.69 1010.53 1010.33 1010.21 1010.09 1009.97 1009.89 1009.81 1009.77 1009.69 1009.61 1009.49 1009.45
1026.81 1026.53 1026.21 1025.93 1025.61 1025.29 1024.93 1024.61 1024.21 1023.89 1023.53 1023.21 1022.81 1022.49 1022.21 1021.81 1021.45 1021.09 1020.77 1020.45 1020.13 1019.77 1019.41 1019.05 1018.77 1018.61 1018.37 1018.17 1017.93 1017.69 1017.41 1017.09 1016.77 1016.37 1016.05 1015.69 1015.37 1015.05 1014.65 1014.29 1014.01 1013.73 1013.37 1012.89 1012.61 1012.49 1012.49 1012.53 1012.45 1012.29 1012.09 1011.93 1011.73 1011.57 1011.45 1011.29 1011.13 1010.93 1010.77 1010.61 1010.45 1010.29 1010.17 1010.09 1010.05 1009.97 1009.93 1009.89 1009.89
1026.93 1026.65 1026.33 1026.01 1025.73 1025.41 1025.05 1024.69 1024.33 1024.01 1023.65 1023.33 1022.93 1022.65 1022.29 1021.93 1021.57 1021.21 1020.85 1020.57 1020.25 1019.93 1019.53 1019.21 1018.89 1018.65 1018.41 1018.21 1018.01 1017.77 1017.53 1017.29 1016.97 1016.65 1016.29 1015.93 1015.61 1015.25 1014.93 1014.53 1014.21 1013.97 1013.65 1013.21 1012.77 1012.49 1012.41 1012.49 1012.57 1012.53 1012.45 1012.25 1012.05 1011.93 1011.81 1011.69 1011.49 1011.33 1011.13 1010.97 1010.77 1010.65 1010.49 1010.37 1010.29 1010.25 1010.21 1010.21 1010.25
1027.01 1026.73 1026.41 1026.13 1025.81 1025.49 1025.17 1024.85 1024.49 1024.17 1023.81 1023.45 1023.09 1022.73 1022.41 1022.09 1021.73 1021.37 1020.97 1020.65 1020.33 1020.05 1019.69 1019.37 1018.97 1018.69 1018.49 1018.29 1018.09 1017.85 1017.65 1017.41 1017.17 1016.85 1016.49 1016.17 1015.81 1015.49 1015.17 1014.81 1014.49 1014.21 1013.85 1013.49 1013.05 1012.69 1012.49 1012.41 1012.49 1012.57 1012.61 1012.53 1012.41 1012.25 1012.13 1012.05 1011.89 1011.69 1011.53 1011.37 1011.21 1011.05 1010.93 1010.77 1010.65 1010.61 1010.57 1010.53 1010.57
1027.09 1026.77 1026.49 1026.21 1025.93 1025.65 1025.33 1025.01 1024.69 1024.33 1023.93 1023.57 1023.21 1022.93 1022.57 1022.21 1021.89 1021.49 1021.13 1020.77 1020.49 1020.21 1019.85 1019.49 1019.17 1018.81 1018.57 1018.37 1018.21 1017.93 1017.73 1017.49 1017.29 1017.01 1016.69 1016.37 1016.05 1015.73 1015.41 1015.13 1014.77 1014.45 1014.05 1013.57 1013.21 1012.93 1012.69 1012.49 1012.49 1012.57 1012.65 1012.73 1012.69 1012.57 1012.49 1012.37 1012.21 1012.05 1011.89 1011.73 1011.61 1011.45 1011.33 1011.21 1011.09 1011.01 1010.93 1010.89 1010.89
1027.21 1026.89 1026.57 1026.29 1026.01 1025.73 1025.41 1025.09 1024.77 1024.45 1024.13 1023.77 1023.49 1023.13 1022.77 1022.37 1022.05 1021.65 1021.29 1020.93 1020.61 1020.29 1019.97 1019.65 1019.37 1019.01 1018.73 1018.49 1018.25 1018.05 1017.85 1017.61 1017.37 1017.09 1016.81 1016.49 1016.17 1015.93 1015.65 1015.33 1015.05 1014.69 1014.21 1013.65 1013.33 1013.09 1012.89 1012.65 1012.57 1012.65 1012.77 1012.85 1012.89 1012.81 1012.73 1012.61 1012.49 1012.33 1012.21 1012.05 1011.93 1011.81 1011.69 1011.61 1011.49 1011.37 1011.29 1011.21 1011.17
1027.33 1027.01 1026.69 1026.37 1026.13 1025.85 1025.49 1025.21 1024.93 1024.61 1024.33 1023.97 1023.65 1023.33 1022.93 1022.57 1022.21 1021.85 1021.45 1021.05 1020.69 1020.41 1020.17 1019.93 1019.61 1019.25 1018.93 1018.65 1018.41 1018.17 1017.93 1017.65 1017.49 1017.21 1016.89 1016.57 1016.29 1016.01 1015.73 1015.45 1015.21 1014.85 1014.33 1013.77 1013.37 1013.13 1012.97 1012.81 1012.77 1012.85 1012.93 1013.01 1013.05 1013.05 1012.97 1012.85 1012.73 1012.61 1012.49 1012.33 1012.21 1012.13 1012.01 1011.93 1011.81 1011.69 1011.61 1011.53 1011.49
1027.45 1027.13 1026.81 1026.53 1026.25 1025.93 1025.65 1025.37 1025.05 1024.77 1024.45 1024.17 1023.81 1023.49 1023.13 1022.77 1022.41 1022.05 1021.65 1021.29 1020.93 1020.61 1020.33 1020.17 1019.85 1019.53 1019.21 1018.93 1018.61 1018.33 1018.05 1017.77 1017.53 1017.29 1017.01 1016.73 1016.41 1016.13 1015.85 1015.61 1015.37 1015.01 1014.49 1013.89 1013.37 1013.09 1013.05 1013.01 1013.01 1013.05 1013.17 1013.25 1013.29 1013.25 1013.21 1013.05 1012.93 1012.85 1012.73 1012.65 1012.53 1012.41 1012.33 1012.21 1012.13 1012.05 1011.93 1011.85 1011.77
1027.49 1027.21 1026.93 1026.65 1026.33 1026.05 1025.73 1025.45 1025.17 1024.89 1024.61 1024.33 1023.97 1023.65 1023.33 1023.01 1022.69 1022.33 1021.93 1021.57 1021.17 1020.81 1020.53 1020.25 1019.97 1019.65 1019.37 1019.05 1018.77 1018.49 1018.21 1017.93 1017.65 1017.37 1017.13 1016.89 1016.57 1016.29 1016.05 1015.77 1015.49 1015.13 1014.65 1013.93 1013.41 1013.21 1013.21 1013.21 1013.21 1013.33 1013.41 1013.45 1013.49 1013.49 1013.41 1013.33 1013.21 1013.09 1013.01 1012.93 1012.81 1012.73 1012.61 1012.49 1012.41 1012.33 1012.21 1012.13 1012.05
1027.61 1027.33 1027.05 1026.77 1026.45 1026.13 1025.81 1025.53 1025.25 1024.97 1024.69 1024.41 1024.13 1023.81 1023.49 1023.21 1022.89 1022.57 1022.21 1021.77 1021.37 1021.01 1020.69 1020.37 1020.09 1019.81 1019.49 1019.21 1018.93 1018.61 1018.33 1018.05 1017.77 1017.57 1017.29 1017.01 1016.73 1016.49 1016.21 1015.93 1015.65 1015.29 1014.73 1014.09 1013.65 1013.49 1013.45 1013.49 1013.49 1013.57 1013.65 1013.65 1013.65 1013.65 1013.65 1013.53 1013.45 1013.37 1013.29 1013.21 1013.09 1013.01 1012.89 1012.77 1012.69 1012.57 1012.49 1012.41 1012.33
1027.69 1027.45 1027.17 1026.85 1026.53 1026.21 1025.93 1025.65 1025.37 1025.05 1024.77 1024.49 1024.25 1023.97 1023.65 1023.37 1023.05 1022.77 1022.37 1021.97 1021.61 1021.21 1020.93 1020.65 1020.33 1020.05 1019.73 1019.41 1019.05 1018.77 1018.49 1018.21 1017.93 1017.69 1017.45 1017.17 1016.89 1016.65 1016.33 1016.09 1015.85 1015.49 1014.93 1014.41 1014.05 1013.85 1013.77 1013.77 1013.81 1013.81 1013.85 1013.89 1013.89 1013.89 1013.81 1013.73 1013.65 1013.61 1013.53 1013.45 1013.37 1013.29 1013.17 1013.05 1012.97 1012.85 1012.77 1012.69 1012.57
1027.81 1027.53 1027.25 1026.97 1026.65 1026.33 1026.01 1025.69 1025.45 1025.17 1024.89 1024.65 1024.33 1024.05 1023.77 1023.49 1023.21 1022.93 1022.57 1022.21 1021.85 1021.49 1021.21 1020.93 1020.61 1020.29 1019.93 1019.61 1019.29 1018.93 1018.65 1018.33 1018.09 1017.85 1017.61 1017.33 1017.05 1016.77 1016.53 1016.33 1016.05 1015.65 1015.17 1014.69 1014.37 1014.17 1014.05 1014.09 1014.09 1014.13 1014.13 1014.09 1014.13 1014.09 1014.01 1013.93 1013.89 1013.77 1013.73 1013.69 1013.61 1013.49 1013.41 1013.33 1013.21 1013.09 1013.01 1012.93 1012.81
1027.93 1027.65 1027.33 1027.05 1026.73 1026.41 1026.09 1025.77 1025.53 1025.25 1025.01 1024.73 1024.45 1024.17 1023.89 1023.65 1023.37 1023.09 1022.77 1022.41 1022.05 1021.77 1021.41 1021.09 1020.77 1020.45 1020.09 1019.77 1019.41 1019.09 1018.77 1018.53 1018.25 1018.01 1017.73 1017.49 1017.21 1016.93 1016.73 1016.49 1016.25 1015.85 1015.37 1014.93 1014.65 1014.45 1014.33 1014.33 1014.33 1014.33 1014.33 1014.33 1014.33 1014.33 1014.25 1014.17 1014.09 1014.05 1013.97 1013.89 1013.81 1013.73 1013.65 1013.53 1013.45 1013.37 1013.21 1013.09 1013.01
1028.05 1027.77 1027.45 1027.09 1026.77 1026.49 1026.21 1025.89 1025.65 1025.41 1025.17 1024.89 1024.57 1024.29 1024.01 1023.77 1023.49 1023.25 1022.93 1022.61 1022.25 1021.93 1021.61 1021.25 1020.93 1020.61 1020.29 1019.93 1019.57 1019.21 1018.93 1018.69 1018.45 1018.17 1017.89 1017.65 1017.37 1017.13 1016.89 1016.65 1016.41 1016.05 1015.57 1015.17 1014.93 1014.69 1014.53 1014.49 1014.53 1014.53 1014.57 1014.61 1014.61 1014.53 1014.45 1014.37 1014.33 1014.25 1014.21 1014.13 1014.05 1013.97 1013.89 1013.77 1013.65 1013.53 1013.41 1013.29 1013.17
1028.13 1027.85 1027.53 1027.21 1026.89 1026.57 1026.25 1026.01 1025.77 1025.53 1025.29 1025.05 1024.77 1024.45 1024.17 1023.89 1023.61 1023.33 1023.05 1022.73 1022.45 1022.09 1021.77 1021.41 1021.13 1020.81 1020.49 1020.13 1019.73 1019.37 1019.09 1018.85 1018.65 1018.37 1018.09 1017.81 1017.57 1017.33 1017.05 1016.81 1016.57 1016.21 1015.85 1015.45 1015.13 1014.89 1014.69 1014.65 1014.65 1014.69 1014.73 1014.77 1014.77 1014.69 1014.61 1014.57 1014.49 1014.45 1014.37 1014.33 1014.25 1014.21 1014.09 1014.01 1013.89 1013.77 1013.61 1013.41 1013.29
1028.17 1027.89 1027.61 1027.29 1026.97 1026.65 1026.33 1026.05 1025.85 1025.65 1025.45 1025.21 1024.93 1024.65 1024.33 1024.05 1023.73 1023.45 1023.17 1022.93 1022.65 1022.33 1021.93 1021.65 1021.33 1021.01 1020.65 1020.29 1019.89 1019.53 1019.25 1019.01 1018.77 1018.57 1018.29 1018.05 1017.77 1017.53 1017.25 1017.05 1016.77 1016.49 1016.09 1015.69 1015.37 1015.09 1014.93 1014.81 1014.81 1014.81 1014.85 1014.93 1014.89 1014.77 1014.69 1014.65 1014.61 1014.57 1014.53 1014.49 1014.45 1014.37 1014.29 1014.17 1014.05 1013.93 1013.77 1013.65 1013.37
1028.25 1027.97 1027.69 1027.37 1027.05 1026.69 1026.37 1026.13 1026.01 1025.85 1025.65 1025.37 1025.05 1024.77 1024.45 1024.13 1023.89 1023.61 1023.37 1023.09 1022.81 1022.49 1022.17 1021.81 1021.49 1021.21 1020.85 1020.45 1020.05 1019.69 1019.37 1019.13 1018.93 1018.69 1018.49 1018.21 1017.97 1017.69 1017.45 1017.25 1017.01 1016.69 1016.33 1015.93 1015.61 1015.33 1015.13 1014.97 1014.93 1014.93 1014.97 1015.01 1014.97 1014.89 1014.77 1014.69 1014.65 1014.65 1014.65 1014.61 1014.53 1014.49 1014.45 1014.33 1014.25 1014.13 1014.01 1013.85 1013.61
1028.33 1028.05 1027.77 1027.45 1027.13 1026.77 1026.45 1026.25 1026.17 1026.05 1025.81 1025.53 1025.25 1024.93 1024.61 1024.33 1024.05 1023.77 1023.49 1023.21 1022.93 1022.61 1022.29 1021.93 1021.65 1021.33 1020.97 1020.57 1020.17 1019.81 1019.49 1019.25 1019.05 1018.85 1018.65 1018.37 1018.13 1017.89 1017.65 1017.45 1017.21 1016.89 1016.53 1016.21 1015.81 1015.53 1015.37 1015.21 1015.09 1015.09 1015.13 1015.21 1015.13 1015.01 1014.89 1014.77 1014.77 1014.77 1014.77 1014.73 1014.69 1014.65 1014.61 1014.53 1014.45 1014.33 1014.25 1014.17 1013.97
1028.45 1028.17 1027.85 1027.49 1027.21 1026.85 1026.53 1026.37 1026.33 1026.17 1025.93 1025.69 1025.41 1025.09 1024.77 1024.49 1024.21 1023.93 1023.65 1023.33 1022.97 1022.65 1022.33 1022.01 1021.69 1021.37 1021.05 1020.65 1020.33 1019.97 1019.65 1019.37 1019.21 1018.97 1018.77 1018.53 1018.33 1018.05 1017.81 1017.65 1017.37 1017.05 1016.77 1016.45 1016.05 1015.77 1015.53 1015.37 1015.21 1015.21 1015.21 1015.33 1015.29 1015.21 1015.05 1014.97 1014.93 1014.93 1014.93 1014.93 1014.89 1014.81 1014.77 1014.73 1014.65 1014.57 1014.49 1014.41 1014.33
Thickness
5331 5332 5334 5336 5337 5339 5340 5342 5344 5345 5347 5347 5350 5351 5353 5355 5357 5359 5360 5362 5363 5365 5367 5369 5370 5372 5373 5374 5375 5376 5378 5380 5382 5383 5386 5387 5389 5392 5394 5397 5400 5404 5407 5411 5414 5418 5422 5426 5430 5433 5438 5441 5446 5449 5453 5455 5458 5460 5463 5466 5470 5474 5477 5481 5482 5486 5492 5495 5497
5328 5328 5330 5332 5333 5335 5337 5339 5340 5341 5342 5343 5345 5347 5349 5351 5353 5354 5356 5357 5358 5359 5361 5364 5365 5367 5368 5369 5370 5372 5374 5376 5378 5379 5381 5383 5385 5386 5389 5392 5395 5398 5401 5405 5408 5412 5416 5420 5424 5428 5432 5436 5441 5444 5448 5451 5454 5455 5456 5460 5464 5468 5471 5474 5478 5482 5486 5492 5492
5325 5326 5328 5329 5330 5332 5334 5335 5336 5337 5339 5340 5342 5343 5345 5346 5348 5350 5351 5352 5353 5355 5357 5359 5361 5363 5365 5366 5367 5368 5370 5371 5373 5375 5377 5379 5381 5383 5385 5388 5390 5393 5396 5400 5403 5407 5410 5414 5419 5423 5427 5432 5435 5439 5443 5447 5450 5451 5452 5456 5460 5464 5466 5469 5472 5475 5480 5487 5489
5322 5323 5325 5326 5327 5329 5330 5331 5332 5334 5335 5337 5338 5339 5341 5342 5343 5345 5346 5348 5350 5352 5353 5355 5357 5360 5361 5363 5364 5366 5367 5368 5370 5371 5374 5376 5378 5379 5381 5383 5386 5389 5392 5395 5398 5401 5405 5409 5413 5418 5423 5426 5431 5434 5438 5442 5446 5448 5450 5452 5457 5460 5462 5463 5466 5470 5474 5476 5483
5319 5320 5322 5323 5324 5325 5326 5327 5328 5330 5331 5333 5335 5336 5338 5338 5339 5341 5343 5345 5347 5348 5350 5351 5353 5356 5359 5360 5361 5363 5365 5366 5367 5369 5371 5373 5375 5377 5379 5380 5383 5385 5388 5391 5393 5397 5400 5404 5408 5413 5418 5422 5426 5430 5434 5438 5442 5445 5447 5448 5452 5456 5458 5458 5461 5464 5467 5469 5474
5318 5318 5319 5321 5321 5322 5323 5324 5324 5326 5328 5329 5331 5332 5333 5334 5336 5337 5339 5341 5343 5345 5347 5349 5351 5354 5355 5357 5359 5361 5363 5364 5366 5368 5369 5371 5373 5375 5377 5378 5380 5382 5385 5387 5389 5392 5395 5399 5403 5408 5413 5417 5421 5425 5430 5434 5439 5442 5444 5446 5449 5453 5454 5455 5457 5459 5461 5464 5465
5314 5315 5317 5318 5319 5319 5320 5320 5321 5323 5324 5326 5327 5328 5329 5331 5332 5333 5335 5337 5340 5342 5344 5346 5349 5350 5352 5354 5356 5358 5360 5363 5364 5365 5367 5369 5371 5373 5374 5376 5378 5380 5382 5384 5386 5388 5391 5394 5398 5403 5408 5412 5416 5421 5425 5430 5435 5438 5439 5440 5444 5448 5450 5451 5452 5453 5455 5457 5457
5311 5312 5313 5315 5315 5316 5317 5317 5319 5320 5321 5323 5324 5325 5326 5327 5328 5330 5332 5334 5336 5338 5340 5343 5345 5347 5349 5351 5354 5355 5358 5360 5362 5363 5365 5367 5368 5370 5372 5374 5376 5378 5380 5381 5383 5385 5387 5389 5393 5398 5403 5407 5412 5417 5422 5425 5430 5432 5431 5432 5435 5437 5439 5443 5446 5448 5449 5450 5450
5309 5311 5311 5312 5312 5313 5314 5315 5315 5317 5318 5319 5320 5321 5322 5324 5325 5327 5329 5330 5333 5335 5337 5339 5341 5343 5345 5347 5349 5352 5354 5356 5358 5361 5362 5364 5366 5368 5370 5372 5374 5376 5378 5379 5380 5382 5384 5386 5389 5393 5397 5402 5407 5412 5418 5422 5425 5426 5425 5427 5429 5430 5433 5438 5441 5443 5443 5445 5445
5307 5308 5308 5309 5310 5310 5311 5312 5313 5314 5315 5316 5317 5318 5319 5320 5322 5323 5324 5327 5329 5332 5333 5335 5337 5339 5341 5343 5345 5348 5349 5352 5354 5356 5359 5361 5363 5366 5368 5370 5372 5373 5375 5376 5378 5380 5381 5383 5386 5388 5393 5397 5402 5408 5413 5418 5420 5422 5423 5426 5427 5428 5430 5432 5435 5436 5438 5440 5441
5305 5305 5306 5306 5307 5307 5308 5309 5310 5312 5312 5313 5314 5315 5317 5318 5319 5319 5321 5323 5326 5328 5330 5331 5333 5335 5337 5339 5341 5342 5344 5346 5349 5352 5354 5357 5359 5362 5364 5367 5368 5370 5372 5374 5376 5377 5378 5380 5382 5385 5389 5393 5398 5404 5409 5413 5415 5415 5419 5425 5424 5423 5423 5424 5426 5428 5431 5433 5435
5302 5303 5303 5303 5304 5304 5305 5306 5307 5308 5309 5310 5311 5312 5313 5314 5315 5316 5318 5320 5322 5324 5326 5327 5328 5330 5332 5334 5336 5338 5340 5342 5344 5347 5350 5352 5354 5356 5359 5361 5363 5365 5368 5371 5373 5375 5376 5377 5379 5381 5385 5389 5394 5399 5403 5407 5409 5409 5411 5416 5416 5417 5417 5418 5419 5420 5422 5425 5428
5299 5300 5300 5300 5300 5301 5302 5303 5304 5305 5306 5306 5308 5309 5310 5311 5311 5313 5314 5316 5318 5320 5322 5323 5324 5326 5327 5329 5331 5333 5335 5337 5339 5342 5344 5346 5348 5350 5352 5354 5356 5360 5363 5367 5370 5372 5374 5375 5375 5377 5380 5385 5390 5394 5398 5402 5403 5404 5405 5406 5409 5412 5413 5414 5415 5415 5416 5418 5421
5295 5296 5297 5297 5297 5298 5298 5299 5300 5301 5302 5302 5304 5305 5306 5307 5308 5309 5310 5312 5314 5317 5318 5319 5320 5321 5322 5324 5325 5328 5330 5332 5334 5337 5339 5341 5343 5344 5346 5348 5350 5353 5357 5361 5365 5369 5371 5372 5373 5374 5376 5380 5385 5390 5394 5397 5399 5400 5401 5403 5404 5406 5408 5411 5413 5413 5413 5414 5416
5292 5293 5293 5293 5293 5293 5294 5295 5296 5297 5298 5299 5300 5301 5302 5303 5304 5305 5306 5308 5310 5312 5313 5315 5316 5317 5318 5319 5321 5322 5325 5327 5329 5331 5334 5336 5338 5339 5340 5342 5344 5347 5350 5354 5359 5364 5367 5369 5370 5371 5373 5376 5380 5385 5389 5394 5396 5398 5399 5400 5401 5401 5403 5406 5408 5411 5412 5413 5413
5288 5289 5289 5289 5289 5290 5290 5291 5292 5293 5293 5294 5296 5297 5298 5299 5299 5301 5302 5304 5306 5308 5309 5311 5311 5312 5313 5315 5316 5318 5320 5322 5324 5326 5328 5330 5332 5334 5335 5336 5339 5341 5344 5348 5352 5356 5360 5363 5365 5367 5369 5372 5375 5379 5384 5388 5393 5394 5395 5395 5396 5396 5398 5401 5404 5407 5409 5411 5412
5285 5285 5286 5286 5286 5286 5286 5287 5287 5288 5289 5290 5291 5292 5293 5294 5295 5296 5298 5300 5302 5304 5305 5306 5307 5308 5309 5310 5311 5313 5315 5317 5318 5320 5321 5324 5326 5328 5330 5332 5333 5335 5338 5341 5345 5348 5351 5355 5358 5360 5363 5366 5370 5373 5377 5381 5385 5387 5388 5389 5389 5389 5392 5395 5398 5402 5405 5407 5408
5281 5282 5282 5282 5283 5282 5282 5282 5283 5283 5284 5285 5287 5289 5289 5290 5291 5292 5293 5295 5297 5299 5301 5302 5303 5303 5304 5305 5306 5308 5309 5311 5313 5315 5316 5318 5320 5323 5325 5327 5328 5330 5332 5335 5338 5341 5344 5348 5350 5353 5356 5360 5365 5368 5372 5374 5376 5379 5381 5382 5382 5383 5386 5389 5392 5397 5400 5402 5403
5278 5278 5278 5278 5278 5279 5278 5279 5279 5280 5281 5282 5283 5284 5286 5286 5287 5288 5289 5290 5293 5295 5297 5298 5299 5299 5300 5301 5302 5304 5305 5306 5308 5310 5311 5313 5315 5318 5320 5322 5323 5325 5327 5330 5332 5334 5338 5340 5343 5346 5349 5354 5358 5361 5364 5368 5370 5373 5374 5376 5377 5379 5380 5383 5387 5391 5395 5397 5397
5273 5273 5274 5274 5274 5274 5275 5275 5275 5276 5277 5278 5279 5281 5282 5282 5283 5284 5285 5286 5288 5290 5292 5293 5294 5295 5296 5297 5298 5299 5301 5302 5303 5305 5307 5309 5310 5313 5315 5317 5320 5322 5322 5324 5326 5329 5331 5334 5336 5339 5343 5346 5350 5353 5356 5360 5365 5367 5369 5370 5371 5373 5375 5378 5381 5385 5388 5390 5391
5268 5268 5269 5269 5269 5269 5270 5271 5271 5272 5273 5274 5275 5276 5278 5279 5279 5280 5281 5282 5284 5286 5287 5289 5290 5291 5292 5293 5294 5295 5297 5298 5299 5301 5302 5304 5306 5308 5310 5312 5315 5318 5319 5320 5322 5324 5325 5327 5330 5333 5336 5340 5342 5345 5348 5353 5358 5362 5363 5365 5366 5367 5368 5372 5375 5378 5382 5384 5386
5263 5263 5264 5264 5265 5265 5266 5267 5267 5268 5269 5270 5271 5272 5273 5275 5275 5276 5277 5278 5279 5282 5283 5285 5286 5287 5288 5288 5289 5291 5293 5294 5295 5297 5298 5300 5302 5304 5306 5308 5310 5314 5316 5318 5319 5320 5321 5322 5324 5326 5330 5333 5336 5338 5341 5344 5349 5353 5356 5357 5358 5360 5362 5365 5368 5371 5374 5377 5380
5259 5258 5259 5260 5260 5261 5262 5263 5263 5264 5265 5266 5267 5268 5269 5271 5272 5272 5273 5274 5275 5277 5278 5281 5282 5283 5284 5284 5285 5286 5288 5290 5291 5293 5294 5296 5298 5300 5302 5304 5307 5309 5313 5316 5317 5317 5317 5317 5319 5321 5324 5327 5330 5332 5334 5337 5340 5344 5347 5349 5351 5354 5356 5359 5362 5364 5367 5370 5373
5254 5254 5254 5255 5256 5256 5257 5258 5259 5260 5261 5262 5263 5264 5265 5266 5267 5269 5270 5270 5271 5272 5275 5277 5278 5279 5280 5281 5282 5283 5284 5286 5287 5289 5291 5293 5294 5296 5299 5301 5302 5305 5308 5314 5315 5315 5315 5315 5315 5316 5318 5321 5323 5325 5327 5330 5333 5336 5339 5342 5344 5347 5350 5353 5356 5358 5360 5363 5365
5249 5250 5250 5250 5251 5252 5253 5253 5255 5255 5256 5257 5258 5259 5261 5262 5263 5265 5266 5267 5267 5269 5270 5272 5274 5275 5277 5277 5278 5279 5280 5281 5283 5285 5287 5288 5290 5293 5295 5297 5299 5301 5304 5308 5313 5314 5314 5314 5314 5313 5314 5316 5317 5320 5322 5323 5327 5329 5332 5335 5338 5341 5344 5347 5349 5352 5354 5356 5358
5244 5245 5246 5245 5246 5247 5248 5248 5249 5250 5252 5253 5254 5255 5256 5257 5259 5260 5261 5262 5263 5264 5266 5267 5270 5271 5273 5274 5275 5276 5277 5278 5279 5281 5283 5285 5287 5289 5291 5293 5295 5298 5301 5304 5309 5312 5313 5314 5313 5312 5311 5312 5313 5315 5317 5319 5321 5324 5326 5329 5332 5335 5338 5341 5344 5346 5348 5350 5352
5240 5241 5241 5241 5241 5242 5242 5243 5244 5245 5247 5248 5248 5249 5251 5252 5254 5255 5257 5258 5259 5260 5262 5263 5265 5267 5269 5269 5271 5272 5273 5274 5276 5277 5279 5281 5283 5285 5287 5289 5291 5294 5297 5301 5306 5307 5309 5311 5312 5311 5310 5309 5310 5310 5312 5314 5316 5319 5322 5324 5327 5329 5333 5335 5337 5340 5342 5344 5347
5235 5235 5236 5236 5237 5237 5238 5239 5240 5241 5242 5242 5243 5244 5246 5247 5249 5250 5252 5254 5255 5257 5257 5258 5260 5262 5264 5266 5267 5268 5270 5270 5272 5273 5275 5278 5280 5281 5283 5285 5287 5291 5294 5298 5302 5304 5305 5307 5308 5308 5307 5307 5307 5307 5307 5309 5312 5314 5317 5320 5322 5324 5327 5329 5332 5334 5337 5338 5341
5230 5231 5231 5231 5232 5232 5233 5234 5235 5236 5237 5237 5238 5239 5240 5242 5244 5245 5247 5249 5251 5252 5253 5254 5255 5257 5259 5261 5263 5264 5266 5267 5268 5270 5272 5274 5276 5278 5280 5282 5284 5287 5291 5295 5299 5301 5302 5303 5303 5303 5303 5303 5302 5303 5304 5306 5308 5310 5312 5315 5317 5319 5322 5324 5326 5329 5331 5333 5335
5226 5226 5226 5226 5227 5227 5228 5229 5229 5230 5231 5232 5233 5234 5236 5237 5238 5240 5242 5244 5246 5247 5248 5249 5250 5252 5254 5256 5258 5260 5262 5263 5265 5267 5269 5271 5273 5275 5277 5279 5280 5283 5287 5291 5296 5299 5299 5299 5299 5298 5298 5298 5298 5299 5300 5301 5303 5305 5308 5310 5312 5314 5317 5319 5321 5323 5325 5327 5330
5221 5221 5221 5221 5221 5222 5223 5223 5224 5225 5225 5227 5228 5229 5230 5231 5233 5234 5236 5238 5240 5242 5243 5244 5246 5247 5249 5251 5253 5255 5257 5259 5261 5263 5265 5267 5269 5271 5273 5275 5276 5279 5283 5288 5293 5295 5295 5295 5294 5293 5293 5293 5293 5294 5295 5297 5299 5301 5302 5305 5307 5309 5312 5314 5316 5318 5320 5322 5324
5216 5216 5216 5217 5216 5217 5218 5219 5219 5219 5220 5221 5222 5224 5225 5226 5227 5228 5230 5232 5235 5237 5239 5240 5242 5244 5245 5247 5249 5251 5253 5255 5257 5259 5261 5263 5265 5267 5269 5271 5272 5275 5280 5285 5289 5290 5290 5290 5289 5289 5288 5288 5288 5289 5290 5292 5293 5295 5297 5299 5302 5304 5307 5308 5311 5313 5315 5317 5319
5210 5211 5211 5211 5211 5212 5213 5213 5214 5214 5215 5216 5217 5218 5219 5221 5222 5223 5225 5227 5229 5231 5233 5235 5237 5238 5240 5242 5244 5246 5248 5250 5252 5255 5258 5259 5261 5263 5265 5267 5268 5271 5275 5280 5283 5284 5284 5285 5285 5284 5284 5284 5284 5284 5285 5287 5289 5291 5292 5294 5296 5298 5300 5302 5304 5307 5309 5311 5314
5205 5206 5206 5205 5206 5207 5208 5208 5208 5209 5209 5210 5211 5212 5213 5215 5217 5218 5219 5221 5223 5225 5227 5229 5231 5233 5235 5237 5240 5242 5244 5246 5248 5250 5253 5255 5257 5259 5261 5262 5264 5267 5271 5275 5278 5279 5280 5280 5280 5280 5280 5279 5279 5280 5281 5282 5284 5285 5287 5290 5291 5293 5295 5297 5299 5301 5303 5305 5307
5200 5200 5200 5201 5201 5201 5202 5202 5203 5204 5204 5205 5206 5207 5208 5209 5210 5211 5213 5215 5217 5219 5221 5223 5225 5228 5230 5232 5235 5237 5239 5242 5243 5245 5248 5251 5253 5255 5257 5258 5260 5262 5266 5269 5273 5274 5274 5275 5275 5275 5275 5274 5274 5275 5276 5278 5279 5281 5283 5285 5287 5288 5291 5293 5295 5297 5299 5301 5303
5195 5195 5195 5195 5196 5196 5197 5197 5197 5198 5198 5199 5200 5201 5202 5203 5204 5205 5207 5209 5212 5213 5215 5218 5220 5222 5225 5227 5230 5233 5235 5237 5239 5241 5243 5246 5248 5250 5252 5253 5255 5258 5261 5265 5269 5270 5269 5271 5271 5271 5271 5270 5271 5272 5272 5273 5275 5277 5279 5281 5282 5284 5286 5288 5290 5292 5294 5297 5299
5190 5191 5191 5191 5191 5191 5192 5192 5192 5192 5193 5193 5194 5195 5196 5197 5198 5200 5201 5203 5205 5208 5210 5212 5214 5217 5219 5222 5225 5228 5230 5232 5233 5235 5238 5240 5242 5245 5247 5249 5251 5254 5257 5260 5264 5266 5265 5268 5268 5267 5267 5267 5267 5267 5268 5270 5271 5272 5274 5276 5277 5279 5281 5283 5285 5287 5290 5292 5295
5187 5186 5186 5187 5187 5187 5187 5187 5187 5186 5186 5187 5188 5189 5190 5191 5192 5194 5195 5197 5199 5201 5204 5206 5208 5210 5213 5216 5219 5222 5225 5227 5228 5230 5232 5234 5237 5239 5242 5244 5246 5249 5251 5254 5259 5261 5262 5263 5264 5264 5264 5263 5264 5264 5265 5266 5267 5268 5270 5271 5273 5275 5276 5278 5280 5282 5284 5287 5291
5183 5183 5182 5182 5182 5182 5183 5182 5182 5180 5180 5181 5181 5183 5184 5185 5186 5187 5189 5190 5192 5195 5198 5200 5203 5205 5207 5211 5214 5217 5219 5221 5223 5225 5227 5229 5231 5234 5237 5238 5241 5243 5246 5249 5253 5256 5258 5258 5260 5260 5260 5260 5260 5261 5262 5262 5264 5265 5266 5267 5269 5270 5272 5273 5275 5277 5279 5281 5285
5179 5178 5178 5178 5178 5178 5178 5178 5176 5175 5174 5175 5176 5177 5178 5179 5180 5181 5182 5184 5186 5188 5191 5194 5197 5199 5202 5205 5208 5211 5213 5216 5218 5219 5222 5224 5226 5228 5231 5233 5235 5238 5240 5244 5247 5251 5253 5254 5255 5256 5256 5255 5256 5257 5258 5259 5260 5261 5262 5263 5265 5266 5267 5269 5270 5272 5274 5276 5278
5175 5175 5174 5174 5174 5174 5174 5173 5171 5170 5169 5169 5169 5170 5171 5173 5174 5174 5176 5178 5180 5183 5186 5188 5191 5194 5196 5199 5202 5205 5208 5210 5212 5214 5217 5218 5221 5223 5225 5227 5229 5232 5235 5238 5241 5244 5247 5251 5252 5252 5252 5251 5252 5253 5254 5255 5257 5257 5258 5259 5260 5262 5263 5264 5266 5267 5269 5270 5272